Regional Weather Roundup
Issued by NWS

Home | Current Version | Previous Version | Text Only | Print | Product List | Glossary Off
Versions: 1 2 3 4 5 6 7 8 9 10 11 12 13 14 15 16 17 18 19 20 21 22 23 24 25 26 27 28 29 30 31 32 33 34 35 36 37 38 39 40 41 42 43 44 45 46 47 48 49 50

000
ASUS45 KABQ 030710
RWRNM
NEW MEXICO REGIONAL WEATHER ROUNDUP
NATIONAL WEATHER SERVICE ALBUQUERQUE NM
100 AM MDT FRI JUL 03 2015

NOTE: "FAIR" MEANS FEW OR NO CLOUDS BELOW 12,000 FEET AGL WITH NO
       SIGNIFICANT WEATHER OR OBSTRUCTIONS TO VISION.

      THIS PRODUCT IS RELEASED AS TWO VERSIONS.  ONE VERSION NEAR
      THE TOP OF THE HOUR CONTAINING PRELIMINARY DATA FROM ALBUQUERQUE
      AND OTHER STATIONS.  A FINAL VERSION WITH ADDITIONAL DATA IS
      ISSUED ABOUT 10 MINUTES AFTER THE HOUR.

NMZ501-503-504-510>518-030800-
NORTHWEST PLATEAU/NORTHCENTRAL MOUNTAINS

CITY           SKY/WX    TMP DP  RH WIND       PRES   REMARKS
FARMINGTON     CLEAR     66  57  72 E7        30.19F
LOS ALAMOS     CLOUDY    62  51  65 E6        30.32R
SANTA FE       MOCLDY    63  58  83 E6        30.26S
TAOS           MOCLDY    54  45  71 N5        30.33R
ANGEL FIRE     FAIR      49  49  97 CALM      30.42F

$$
NMZ402-403-502-505>509-030800-
WESTCENTRAL MOUNTAINS/SOUTHWEST MOUNTAINS

CITY           SKY/WX    TMP DP  RH WIND       PRES   REMARKS
GALLUP         CLOUDY    67  53  61 E5        30.22R
GRANTS         RAIN      62  60  95 N3        30.31S
SILVER CITY    LGT RAIN  72  57  60 CALM      30.18R

$$
NMZ407-409-411-412-030800-
SOUTHERN DESERTS

CITY           SKY/WX    TMP DP  RH WIND       PRES   REMARKS
LORDSBURG      CLOUDY    70  61  73 SE7G13    30.10R
DEMING         CLOUDY    80  56  43 NE24G33   30.03R
LAS CRUCES     CLOUDY    80  57  45 N10G18    30.07R
HOLLOMAN AFB   MOCLDY    73  63  68 W8        30.03F
ALAMOGORDO     MOCLDY    75  57  53 N10G17    30.05F
T OR C         CLOUDY    77  54  44 N5        30.13R

$$
NMZ519>523-030800-
CENTRAL VALLEYS/CENTRAL HIGHLANDS

CITY           SKY/WX    TMP DP  RH WIND       PRES   REMARKS
ALBUQUERQUE    CLOUDY    70  58  65 N8        30.19F
DOUBLE EAGLE   CLOUDY    66  58  75 N7        30.23S
MORIARTY ARPT    N/A     62  58  88 CALM      30.26R
CLINES CORNERS CLOUDY    61  52  72 E10       30.28F
BELEN          PTSUNNY   67  61  80 W3        30.17S
SOCORRO        FAIR      68  64  86 NW6       30.13S

$$
NMZ524>526-539-540-030800-
SOUTHCENTRAL MOUNTAINS

CITY           SKY/WX    TMP DP  RH WIND       PRES   REMARKS
RUIDOSO        MOCLDY    59  57  94 W8        30.28F

$$
NMZ527>531-030800-
NORTHEAST HIGHLANDS/NORTHEAST PLAINS

CITY           SKY/WX    TMP DP  RH WIND       PRES   REMARKS
LAS VEGAS      MOCLDY    56  54  93 N6        30.30S
RATON          CLOUDY    62  56  80 N8        30.26S
CLAYTON        MOCLDY    66  63  90 N5        30.18R

$$
NMZ532>537-030800-
EASTCENTRAL PLAINS

CITY           SKY/WX    TMP DP  RH WIND       PRES   REMARKS
TUCUMCARI      LGT RAIN  69  63  81 NE10      30.08S
CANNON AFB     CLOUDY    71  63  75 S2        30.09F
CLOVIS AIRPORT CLOUDY    70  63  78 S5          N/A

$$
NMZ028-029-538-030800-
SOUTHEAST PLAINS

CITY           SKY/WX    TMP DP  RH WIND       PRES   REMARKS
ROSWELL        CLOUDY    74  64  71 N5        30.05S
ARTESIA        CLOUDY    77  61  57 NE5       30.05S
CARLSBAD       CLOUDY    79  62  56 SE7       30.03R
HOBBS          CLOUDY    73  63  68 SE9       30.08R


$$



USA.gov is the U.S. government's official web portal to all federal, state and local government web resources and services.